Weather History for Point Mugu, CA

Change the Weather History Date:

Thursday, April 4, 2013

  Actual Average Record
Temperature  
Mean Temperature 60 °F -  
Max Temperature 64 °F 60 °F 64 °F (1997)
Min Temperature 55 °F 44 °F 37 °F (1999)
Degree Days  
Heating Degree Days 6    
Growing Degree Days 10 (Base 50)    
Moisture  
Dew Point 54 °F    
Average Humidity 79    
Maximum Humidity 88    
Minimum Humidity 69    
Precipitation  
Precipitation 0.00 in - - ()
Sea Level Pressure  
Sea Level Pressure 30.08 in    
Wind  
Wind Speed 7 mph (WSW)    
Max Wind Speed 15 mph    
Max Gust Speed 24 mph    
Visibility 6 miles    
Events      
Averages and records for this station are not official NWS values.
T = Trace of Precipitation, MM = Missing Value Source: NWS Daily Summary

Daily Weather History Graph

Daily Weather History Graph

Search for Another Location

Airport:

Trip Planner

Search our weather history database for the weather conditions in past years. The results will help you decide how hot, cold, wet, or windy it might be!

Date:

Astronomy

Apr. 04, 2013 Rise Set
Actual Time 6:39 AM PDT 7:19 PM PDT
Civil Twilight 6:13 AM PDT 7:45 PM PDT
Nautical Twilight 5:44 AM PDT 8:15 PM PDT
Astronomical Twilight 5:13 AM PDT 8:45 PM PDT
Moon 2:54 AM PDT (4/4) 1:57 PM PDT (4/4)
Length of Visible Light 13h 31m
Length of Day
12h 40m
Waning Crescent, 32% of the Moon is Illuminated
Apr 4
Waning Crescent
Apr 10
New
Apr 18
First Quarter
Apr 25
Full
May 2
Last Quarter

Hourly Weather History & Observations

Time (PDT) Temp. Dew Point Humidity Pressure Visibility Wind Dir Wind Speed Gust Speed Precip Events Conditions
12:54 AM - - N/A% 30.09 in - SSW 5.8 mph - N/A   Overcast
1:54 AM - - N/A% 30.09 in - SE 13.8 mph - N/A   Overcast
2:54 AM - - N/A% 30.10 in - South 9.2 mph 17.3 mph N/A   Overcast
3:54 AM - - N/A% 30.08 in - SE 6.9 mph - N/A   Overcast
4:11 AM - - N/A% 30.07 in - SE 6.9 mph - N/A   Overcast
4:54 AM - - N/A% 30.07 in - ESE 4.6 mph - N/A   Overcast
5:28 AM - - N/A% 30.06 in - Calm Calm - N/A   Overcast
5:54 AM 56.5 °F 52.0 °F 85% 30.09 in 6.0 mi WSW 5.8 mph - N/A   Overcast
6:35 AM 57.2 °F 51.8 °F 82% 30.08 in 5.0 mi Calm Calm - N/A   Overcast
6:54 AM 56.5 °F 52.5 °F 87% 30.08 in 5.0 mi Calm Calm - N/A   Haze
7:54 AM 56.1 °F 52.3 °F 87% 30.12 in 3.0 mi West 8.1 mph - N/A   Overcast
8:36 AM 55.4 °F 51.8 °F 88% 30.12 in 3.0 mi WNW 6.9 mph - N/A   Overcast
8:54 AM 56.7 °F 52.5 °F 86% 30.12 in 3.0 mi Calm Calm - N/A   Haze
9:54 AM 57.0 °F 52.7 °F 85% 30.12 in 4.0 mi WNW 3.5 mph - N/A   Overcast
10:54 AM 58.5 °F 53.4 °F 83% 30.14 in 4.0 mi WSW 6.9 mph - N/A   Haze
11:29 AM 59.0 °F 53.6 °F 82% 30.13 in 5.0 mi WSW 5.8 mph - N/A   Haze
11:54 AM 60.4 °F 53.4 °F 78% 30.13 in 5.0 mi WSW 6.9 mph - N/A   Haze
12:54 PM 64.0 °F 54.5 °F 71% 30.10 in 7.0 mi WSW 6.9 mph - N/A   Scattered Clouds
1:54 PM 64.0 °F 54.3 °F 71% 30.09 in 7.0 mi SW 9.2 mph - N/A   Scattered Clouds
2:54 PM 64.8 °F 54.3 °F 69% 30.07 in 7.0 mi Variable 6.9 mph - N/A   Scattered Clouds
3:54 PM 64.0 °F 54.1 °F 70% 30.05 in 7.0 mi SW 5.8 mph - N/A   Scattered Clouds
4:54 PM 64.6 °F 55.4 °F 72% 30.05 in 7.0 mi West 15.0 mph - N/A   Mostly Cloudy
5:54 PM 63.3 °F 54.1 °F 72% 30.04 in 7.0 mi WNW 15.0 mph 20.7 mph N/A   Mostly Cloudy
6:04 PM 62.6 °F 53.6 °F 72% 30.04 in 7.0 mi WNW 11.5 mph 21.9 mph N/A   Mostly Cloudy
6:54 PM 62.8 °F 54.1 °F 73% 30.05 in 7.0 mi WNW 12.7 mph 24.2 mph N/A   Mostly Cloudy
7:54 PM 59.7 °F 54.1 °F 82% 30.04 in 7.0 mi West 15.0 mph 19.6 mph N/A   Overcast
8:54 PM 59.9 °F 54.3 °F 82% 30.07 in 7.0 mi West 12.7 mph 19.6 mph N/A   Mostly Cloudy
9:54 PM 60.3 °F 55.6 °F 85% 30.07 in 7.0 mi WNW 15.0 mph 21.9 mph N/A   Overcast
10:54 PM 59.9 °F 55.0 °F 84% 30.08 in 7.0 mi WNW 10.4 mph - N/A   Overcast
11:54 PM - - N/A% 30.08 in - West 9.2 mph - N/A   Overcast